Weather observations for the past three days for
Walnut Ridge Regional Airport
Metric (Imperial)
Date Time (cdt) Wind (kph) Vis. (km) Weather Sky Cond. Temperature (ºC) Relative Humidity Wind Chill (°C) Heat Index (°C) Pressure Precipitation (cm)
Air Dwpt 6 hour altimeter (cm) sea level (mb) 1 hr 3 hr 6 hr
Max. Min.
10 17:56 N 19 16.09 A Few Clouds FEW120 22.2 11.7 52% 76.3 1017.3
10 16:56 N 22 16.09 Fair CLR 22.2 12.8 55% 76.33 1017.5
10 15:56 Calm 16.09 Fair CLR 23.3 12.8 52% 76.28 1016.9
10 14:56 NE 22 16.09 Fair CLR 23.9 13.3 52% 25 76.3 1017.2
10 13:56 NE 19 16.09 Fair CLR 24.4 15 56% 26 76.28 1016.9
10 12:56 NE 15 16.09 Fair CLR 25 15 25 15 54% 26 76.28 1016.9
10 11:56 NE 19 16.09 Fair CLR 24.4 14.4 54% 26 76.28 1016.8
10 10:56 E 7 16.09 NULL NULL 23.3 13.9 56% 76.28 1016.9
10 09:56 Calm 14.48 Fair CLR 21.7 13.9 61% 76.25 1016.4
10 08:56 SE 7 14.48 A Few Clouds FEW002 19.4 13.3 68% 0 0.0
10 07:56 Calm 16.09 Fair CLR 17.2 14.4 84% 76.17 1015.5
10 06:56 E 7 16.09 NULL NULL 15 14.4 18.9 13.9 96% 0 0.0
10 05:56 Calm 16.09 NULL NULL 15 12.2 83% 76.12 1014.7
10 04:56 Calm 16.09 Fair CLR 15.6 12.2 80% 76.05 1013.7
10 03:56 S 6 16.09 Fair CLR 14.4 12.2 87% 76.02 1013.5
10 02:56 Calm 16.09 Fair CLR 15.6 12.2 80% 75.95 1012.6
10 01:56 SW 6 16.09 Fair CLR 16.7 11.1 70% 75.97 1012.8
10 00:56 W 6 16.09 Fair CLR 17.8 10.6 26.7 17.2 63% 0 0.0
09 23:56 SW 6 16.09 Fair CLR 18.9 10 56% 75.95 1012.5
09 22:56 SW 11 16.09 Fair CLR 19.4 10 55% 75.92 1012.2
09 21:56 S 11 16.09 Fair CLR 19.4 10 55% 75.92 1012.0
09 20:56 S 13 16.09 Fair CLR 20.6 9.4 49% 75.84 1011.2
09 19:56 S 15 16.09 NULL NULL 22.8 8.9 41% 75.82 1010.6
09 18:56 S 13 16.09 NULL NULL 26.7 7.8 28.3 25 30% 26 75.77 1010.1
09 17:56 S 17 16.09 Fair CLR 27.8 7.8 28% 27 75.74 1009.9
09 16:56 Calm 16.09 Fair CLR 28.3 5.6 24% 27 75.74 1009.7
09 15:56 SW 13 16.09 Fair CLR 28.3 6.1 24% 27 75.77 1010.2
09 14:56 Calm 16.09 Fair CLR 27.8 7.8 28% 27 75.79 1010.5
09 13:56 Vrbl 9 16.09 Fair CLR 26.7 8.3 31% 26 75.84 1011.0
09 12:56 Calm 16.09 NULL NULL 25 12.8 25 13.9 47% 26 75.87 1011.3
09 11:56 Calm 16.09 Fair CLR 23.3 13.3 54% 75.87 1011.5
09 09:56 Calm 16.09 NULL NULL 20.6 13.9 66% 75.87 1011.3
09 08:56 Vrbl 6 16.09 NULL NULL 19.4 13.3 68% 75.87 1011.3
09 07:56 NW 6 16.09 NULL NULL 17.2 12.8 76% 75.84 1010.9
09 06:56 Calm 16.09 NULL NULL 13.9 12.2 18.3 13.3 90% 75.74 1009.8
09 05:56 W 7 16.09 NULL NULL 13.9 11.7 87% 75.72 1009.5
09 04:56 W 7 16.09 Fair CLR 15 11.7 81% 75.72 1009.4
09 03:56 W 11 16.09 Fair CLR 16.1 11.7 75% 75.69 1009.2
09 02:56 Calm 16.09 Fair CLR 15 12.8 87% 0 0.0
09 01:56 SW 13 16.09 Fair CLR 16.1 12.2 78% 75.67 1008.7
09 00:56 SW 17 16.09 A Few Clouds FEW120 18.3 11.7 22.2 17.8 66% 75.72 1009.6
08 23:56 S 19 16.09 Fair CLR 18.9 11.7 63% 75.69 1009.1
08 22:56 S 17 16.09 A Few Clouds FEW120 18.3 11.7 66% 75.72 1009.3
08 21:56 S 17 6.44 Fair with Haze CLR 17.8 11.7 68% 75.74 1009.6
08 20:56 S 15 16.09 Fair CLR 18.3 11.1 63% 75.72 1009.4
08 19:56 S 19 16.09 NULL NULL 19.4 11.1 59% 75.72 1009.4
08 18:56 Calm 16.09 NULL NULL 22.2 10.6 23.9 22.2 48% 75.74 1009.8
08 17:56 S 28 G 35 16.09 NULL NULL 23.3 11.1 46% 75.74 1009.8
08 16:56 S 26 G 33 16.09 NULL NULL 23.3 10.6 45% 75.77 1010.0
08 15:56 S 30 16.09 NULL NULL 23.9 10 42% 25 75.79 1010.5
08 14:56 S 28 G 35 16.09 NULL NULL 23.3 9.4 41% 0 0.0
08 13:56 S 30 16.09 NULL NULL 22.8 10 44% 75.92 1012.0
08 12:56 S 28 G 33 16.09 A Few Clouds FEW002 22.2 11.1 22.2 12.2 50% 76.02 1013.5
08 11:56 S 31 16.09 NULL NULL 21.7 11.1 51% 76.1 1014.5
08 10:56 SW 24 G 35 16.09 NULL NULL 20.6 11.7 57% 76.15 1015.2
08 09:56 S 20 16.09 NULL NULL 19.4 11.7 61% 76.17 1015.7
08 08:56 S 17 16.09 NULL NULL 17.2 11.1 68% 76.23 1016.3
08 07:56 S 13 16.09 NULL NULL 14.4 11.1 81% 76.25 1016.5
08 06:56 S 11 16.09 Fair CLR 12.2 11.1 12.8 10 93% 76.23 1016.1
08 05:56 SW 11 16.09 Fair CLR 10.6 10.6 100% 76.17 1015.5
08 04:56 S 11 16.09 Fair CLR 10.6 10 96% 76.15 1015.3
08 03:56 S 11 16.09 Fair CLR 10.6 10.6 100% 76.17 1015.5
08 02:56 Calm 16.09 Fair CLR 12.2 10 87% 76.2 1015.8
08 01:56 S 6 16.09 Fair CLR 12.2 10.6 90% 0 0.0
08 00:56 S 7 16.09 Fair CLR 12.8 10.6 18.9 12.8 87% 76.25 1016.5
07 23:56 S 9 16.09 Fair CLR 12.8 10 83% 76.23 1016.4
07 22:56 S 9 16.09 Fair CLR 13.3 10.6 84% 76.23 1016.4
07 21:56 S 13 16.09 Fair CLR 14.4 10 75% 76.23 1016.3
07 20:56 SE 11 16.09 Fair CLR 15.6 10 70% 76.17 1015.5
07 19:56 SE 13 16.09 NULL NULL 16.7 8.9 60% 76.15 1015.3
07 18:56 Calm 11.27 NULL NULL 18.9 8.3 20.6 17.8 50% 76.15 1015.1
Date Time (cdt) Wind (kph) Vis. (km) Weather Sky Cond. Air Dwpt Max. Min. Relative Humidity Wind Chill (°C) Heat Index (°C) altimeter (cm) sea level (mb) 1 hr 3 hr 6 hr
6 hour
Temperature (ºC) Pressure Precipitation (cm)